Regional Weather Roundup
Issued by NWS

Home | Current Version | Previous Version | Graphics & Text | Print | Product List | Glossary On
Versions: 1 2 3 4 5 6 7 8 9 10 11 12 13 14 15 16 17 18 19 20 21 22 23 24 25 26 27
000
ASUS45 KSLC 220610
RWRUT

UTAH REGIONAL WEATHER ROUNDUP
NATIONAL WEATHER SERVICE SALT LAKE CITY UT
1200 AM MDT WED OCT 22 2014

UTZ001>011-023>025-220700-

NORTHERN UTAH

CITY           SKY/WX    TMP DP  RH WIND       PRES   REMARKS
BRIGHAM CITY   CLEAR     42  32  66 CALM      30.11R
HILL AFB       CLEAR     45  30  56 E6        30.09S
LOGAN          CLEAR     37  31  78 CALM      30.12R
OGDEN          CLEAR     43  34  70 NW6       30.09R
PROVO AIRPORT  CLEAR     48  34  57 NW10      30.09R
SALT LAKE CITY PTCLDY    46  36  68 W5        30.09R
VERNAL         CLOUDY    50  40  68 N9        30.06R
WENDOVER       PTCLDY    50  28  43 N12       30.11R
HEBER CITY     CLEAR     34  28  80 SE3       30.10S
WEST JORDAN    CLEAR     46  36  66 NW8       30.09S

$$

UTZ012>022-026-027-220700-

SOUTHERN/CENTRAL UTAH

CITY           SKY/WX    TMP DP  RH WIND       PRES   REMARKS
BLANDING       PTCLDY    49  38  66 N6        30.14S
BRYCE CANYON   PTCLDY    33  30  88 W5        30.16R WCI  29
CEDAR CITY     PTCLDY    45  33  63 CALM      30.09R
DELTA          CLEAR     46  23  40 N9        30.07R
HANKSVILLE       N/A     61  34  36 NW3       30.00R
MILFORD        CLEAR     50  27  40 N13       30.06R
MOAB/CYNLANDS  MOCLDY    60  38  43 CALM      29.96R
PRICE          PTCLDY    50  39  66 NW6       30.05R
ST GEORGE      CLEAR     66  36  32 SE5       29.94R

$$

REGIONAL REPORTS     COLORADO/ARIZONA

CITY           SKY/WX    TMP DP  RH WIND       PRES   REMARKS
CRAIG, CO      RAIN      46  42  86 S7        30.15R
GRAND JUNCTION CLOUDY    51  43  74 SW5       30.03R
RIFLE          LGT RAIN  50  42  74 NW13G32   30.11R
MONTROSE       CLEAR     48  41  76 SE9       30.08R
CORTEZ         MOCLDY    49  42  77 E5        30.10R
PAGE, AZ       CLEAR     68  36  30 SW5       29.98R
GRAND CANYON   PTCLDY    38  30  73 NE5       30.15R WCI  34
KINGMAN        CLEAR     60  44  55 S10       29.97S
FLAGSTAFF      CLEAR     43  37  79 CALM      30.18R

$$

REGIONAL REPORTS    NEVADA/IDAHO/WYOMING

CITY           SKY/WX    TMP DP  RH WIND       PRES   REMARKS
LAS VEGAS, NV  PTCLDY    70  23  17 S7        29.85R
ELY            MOCLDY    34  10  37 S8        30.12R WCI  27
ELKO           MOCLDY    33  17  51 W3        30.11R
POCATELLO, ID  CLEAR     42  34  73 SW9       30.12S
BURLEY         CLEAR     39  32  76 SW10      30.10R WCI  32
EVANSTON, WY   CLEAR     38  25  59 N5        30.14R WCI  34
ROCK SPRINGS   MOCLDY    41  31  67 SW18      30.10S

$$



USA.gov is the U.S. government's official web portal to all federal, state and local government web resources and services.